Regional Weather Roundup
Issued by NWS Jackson, KY

Home | Current Version | Previous Version | Text Only | Print | Product List | Glossary On
Versions: 1 2 3 4 5 6 7 8 9 10 11 12 13 14 15 16 17 18 19 20 21 22 23 24 25 26 27 28 29 30 31 32 33 34 35 36 37 38 39 40 41 42 43 44 45 46 47 48 49 50
000
ASUS43 KJKL 280010
RWRJKL

EAST KENTUCKY HOURLY WEATHER ROUNDUP
NATIONAL WEATHER SERVICE JACKSON KY
800 PM EDT THU AUG 27 2015

NOTE: "FAIR" INDICATES FEW OR NO CLOUDS BELOW 12,000 FEET WITH
NO SIGNIFICANT WEATHER AND/OR OBSTRUCTIONS TO VISIBILITY.

* THESE REPORTS ARE NOT UNDER NWS QUALITY CONTROL AND MAY NOT
  REPORT WEATHER SUCH AS PRECIPITATION AND FOG.

KYZ079-080-083-085-087-088-110-112-115-119-120-280100
...EASTERN KENTUCKY...

CITY           SKY/WX    TMP DP  RH WIND       PRES   REMARKS
JACKSON        CLEAR     68  56  65 CALM      30.13F
6HR MIN TEMP:  68; 6HR MAX TEMP:  75;

LONDON         CLEAR     73  53  49 NE8       30.12R
6HR MIN TEMP:  73; 6HR MAX TEMP:  79;

SOMERSET*      CLEAR     72  54  53 N7        30.13R
MONTICELLO*    CLEAR     70  61  73 N5        30.14R
6HR MIN TEMP:  70; 6HR MAX TEMP:  80;

MIDDLESBORO*   CLEAR     73  62  67 NW3       30.10S
6HR MIN TEMP:  73; 6HR MAX TEMP:  80;

HAZARD APT*    CLEAR     70  57  64 CALM      30.13S
BLACK MTN*       N/A     59  55  88 N7          N/A
PIKEVILLE APT* CLEAR     68  57  68 N6        30.13F
BIG SANDY*     CLEAR     68  57  67 CALM      30.13F
6HR MIN TEMP:  68; 6HR MAX TEMP:  74;

MOREHEAD APT*  PTCLDY    68  55  64 CALM      30.16S
$$

KYZ035-036-041-042-044-050-067-078-099-280100
...CENTRAL KENTUCKY...

CITY           SKY/WX    TMP DP  RH WIND       PRES   REMARKS
MT STERLING*   PTCLDY    68  55  64 CALM      30.16S
FLEMING/MASON* CLOUDY    70  55  60 NE3       30.16S
DANVILLE*      CLEAR     70  55  60 NE5       30.15S
RICHMOND*      CLEAR     72  54  53 NE5       30.13S
LEXINGTON      PTCLDY    70  55  59 N8        30.15R
6HR MIN TEMP:  70; 6HR MAX TEMP:  79;

FRANKFORT      MOCLDY    73  56  54 N3        30.13S
6HR MIN TEMP:  73; 6HR MAX TEMP:  78;

$$

KYZ091>093-OHZ055-061-077-WVZ005-015-034-035-042-280100
...SOUTHERN OHIO/WEST VIRGINIA...

CITY           SKY/WX    TMP DP  RH WIND       PRES   REMARKS
COVINGTON      PTCLDY    73  53  49 NE3       30.14S
COLUMBUS       PTCLDY    71  53  52 E3        30.13S
DAYTON         PTCLDY    70  57  63 N6        30.15S
WILMINGTON     CLEAR     68  57  68 CALM      30.14F
HUNTINGTON     PTCLDY    70  55  59 N5        30.12F
CHARLESTON     PTCLDY    70  57  63 CALM      30.12F
PINEVILLE*     CLEAR     65  63  94 MISG      30.18S
BECKLEY        CLEAR     67  54  63 N7        30.17S
BLUEFIELD      CLOUDY    71  53  52 CALM      30.18R
$$

VAZ002-007-008-TNZ017-027-036-066-071-280100
...SOUTHWEST VIRGINIA/EAST TENNESSEE...

CITY           SKY/WX    TMP DP  RH WIND       PRES   REMARKS
WISE*          CLEAR     66  55  68 N6        30.18S
JONESVILLE*    CLEAR     73  50  43 CALM      30.11S
ABINGDON*      CLEAR     74  56  52 CALM      30.12R
BRISTOL          N/A     73  59  61 N6        30.08S
KNOXVILLE        N/A     79  59  50 N6        30.05S
OAK RIDGE        N/A     77  61  57 N3        30.08R
CROSSVILLE       N/A     73  59  61 N5        30.12R
NASHVILLE        N/A     78  52  40 N8        30.08S
$$

...KEY TO REMARKS...
VSB - VISIBILITY IN MILES
WCI - WIND CHILL INDEX
HX  - HEAT INDEX

$$


USA.gov is the U.S. government's official web portal to all federal, state and local government web resources and services.